Starlink 32430

operational
NORAD ID: 62207 Int'l Des: 2024-229 Owner: SPXS Country: US Constellation: starlink
LEOCIRCULAR

关于 Starlink 32430

正在加载描述...

实时位置

正在加载3D地球...

即将过境

高度历史

Altitude vs Time

uPlot chart will show altitude changes over time

两行轨道根数

1 62207U 24229R 25350.34967839 .00024292 00000-0 88824-3 0 9992
2 62207 43.0044 18.0907 0002703 295.1177 64.9395 15.27619978 57859
Epoch: Dec 16, 2025 • Age: 15 hours

当前状态

高度 484.8 km
速度 7.62 km/s
星下点 -9.52°S, 128.61°E
发射日期 Dec 4, 2024
运行时间 1 years
类型 internet

技术详情

分类 Payload
质量 730.00 kg
干质量 700.00 kg
总质量 730.00 kg
长度 0.30 m
直径 4.10 m
跨度 29.00 m
形状 Box + pan
制造商 SPXS
平台类型 Starlink V2M
阶段状态 In Orbit
所有者/国家 SPXS/US

大型星座

Loading constellations...